Regional Weather Roundup
Issued by NWS

Home | Current Version | Previous Version | Graphics & Text | Print | Product List | Glossary On
Versions: 1 2 3 4 5 6 7 8 9 10 11 12 13 14 15 16 17 18 19 20 21 22 23 24 25 26 27 28 29 30 31 32 33 34 35 36 37 38 39 40 41 42 43 44 45 46 47 48 49 50
000
ASUS43 KOAX 311510
RWRNE

WEATHER ROUNDUP FOR NEBRASKA
NATIONAL WEATHER SERVICE OMAHA NE
1000 AM CDT FRI JUL 31 2015

NOTES: SATELLITE DATA IS BEING USED TO AUGMENT CLOUD COVER ABOVE
       12000 FEET.
       "FAIR" INDICATES FEW OR NO CLOUDS BELOW 12,000 FEET WITH NO
       SIGNIFICANT WEATHER AND/OR OBSTRUCTIONS TO VISIBILITY.

  * THESE STATIONS DO NOT REPORT WEATHER SUCH AS RAIN...SNOW OR FOG.

NEZ001>004-019>022-054>056-311600-
NEBRASKA PANHANDLE

CITY           SKY/WX    TMP DP  RH WIND       PRES   REMARKS
SCOTTSBLUFF    SUNNY     71  59  65 SE5       30.28S
ALLIANCE       SUNNY     74  61  63 SE5       30.27S
CHADRON        SUNNY     70  55  59 SW5       30.24S
KIMBALL        SUNNY     73  61  65 S6        30.32S
SIDNEY         SUNNY     74  59  59 S6        30.31F
$$

NEZ057>060-069>072-079>082-311600-
SOUTHWEST NEBRASKA

CITY           SKY/WX    TMP DP  RH WIND       PRES   REMARKS
NORTH PLATTE   SUNNY     77  64  64 W5        30.22F
IMPERIAL       SUNNY     78  61  55 W5        30.25F
LEXINGTON      SUNNY     79  69  73 W5        30.21F
MCCOOK         SUNNY     77  67  71 SW6       30.22F
OGALLALA       SUNNY     73  66  79 SW3       30.26S
$$

NEZ005>010-023>029-035>040-094-311600-
NORTH CENTRAL NEBRASKA

CITY           SKY/WX    TMP DP  RH WIND       PRES   REMARKS
VALENTINE      SUNNY     81  59  47 W6        30.19F
AINSWORTH      SUNNY     80  65  59 NE5       30.20S
BROKEN BOW     SUNNY     81  68  64 W6        30.20F
O`NEILL        SUNNY     79  66  65 E5        30.18F
ORD            SUNNY     80  67  64 SW6       30.17F
THEDFORD       SUNNY     78  62  56 CALM      30.24S
$$

NEZ041-046>049-061>064-073>077-083>087-311600-
SOUTH CENTRAL NEBRASKA

CITY           SKY/WX    TMP DP  RH WIND       PRES   REMARKS
GRAND ISLAND   SUNNY     81  69  67 W8        30.19F
AURORA         SUNNY     80  74  84 W8        30.19S
HASTINGS       MOSUNNY   78  72  81 W8        30.20S
HEBRON         SUNNY     80  69  69 W6        30.19F
HOLDREGE       SUNNY     80  69  69 SW5       30.21S
KEARNEY *      SUNNY     81  68  65 W7        30.20S
YORK           SUNNY     79  73  83 SW6       30.19S
$$

NEZ011>018-030>034-042>045-311600-
NORTHEAST NEBRASKA

CITY           SKY/WX    TMP DP  RH WIND       PRES   REMARKS
NORFOLK        SUNNY     79  69  71 CALM      30.15F
ALBION         SUNNY     78  69  73 CALM      30.16F
BLAIR          SUNNY     78  69  73 SW9       30.15S
COLUMBUS *     SUNNY     81  68  65 SW7       30.15F
FREMONT        SUNNY     80  69  67 S8        30.15F
TEKAMAH        SUNNY     79  69  71 VRB3      30.14S
WAYNE          SUNNY     75  67  77 CALM      30.16F
$$

NEZ050>053-065>068-078-088>093-311600-
SOUTHEAST NEBRASKA

CITY           SKY/WX    TMP DP  RH WIND       PRES   REMARKS
LINCOLN        SUNNY     81  69  67 W8        30.17F
OMAHA EPPLEY   MOSUNNY   83  69  62 SW8       30.13F
BEATRICE       SUNNY     77  68  72 CALM      30.18F
FALLS CITY     SUNNY     79  69  71 CALM      30.15F
NEBRASKA CITY  SUNNY     79  67  65 W12       30.15F
PLATTSMOUTH    SUNNY     81  69  68 W10       30.15S
$$

NEZ044-045-051>053-067-311600-
OMAHA AREA

CITY           SKY/WX    TMP DP  RH WIND       PRES   REMARKS
OMAHA EPPLEY   MOSUNNY   83  69  62 SW8       30.13F
BLAIR          SUNNY     78  69  73 SW9       30.15S
FREMONT        SUNNY     80  69  67 S8        30.15F
MILLARD        SUNNY     81  71  70 W8        30.14F
OFFUTT AFB     SUNNY     82  71  69 W8        30.13F
PLATTSMOUTH    SUNNY     81  69  68 W10       30.15S
WAHOO          FAIR      80  71  73 SW9       30.15F
$$


USA.gov is the U.S. government's official web portal to all federal, state and local government web resources and services.